owner,sensor,date,latitude,longitude,vertical_datum,sea_water_practical_salinity,qcFlag 
NERRS,ioos:station:NOAA.NERRS:rkblhwq:1,2015-04-07T13:45:00Z,26.0257,-81.7332,1.03,34.4,1111122 
NERRS,ioos:station:NOAA.NERRS:rkblhwq:1,2015-04-07T14:45:00Z,26.0257,-81.7332,1.05,34.2,1111122 
NERRS,ioos:station:NOAA.NERRS:rkblhwq:1,2015-04-07T16:45:00Z,26.0257,-81.7332,1.27,34.4,1111122 
NERRS,ioos:station:NOAA.NERRS:rkblhwq:1,2015-04-07T17:45:00Z,26.0257,-81.7332,1.42,34.4,1111122 
NERRS,ioos:station:NOAA.NERRS:rkblhwq:1,2015-04-07T18:45:00Z,26.0257,-81.7332,1.54,34.4,1111122 
NERRS,ioos:station:NOAA.NERRS:rkblhwq:1,2015-04-07T20:45:00Z,26.0257,-81.7332,1.57,34.4,1111122 
NERRS,ioos:station:NOAA.NERRS:rkblhwq:1,2015-04-07T21:45:00Z,26.0257,-81.7332,1.46,34.4,1111122 
NERRS,ioos:station:NOAA.NERRS:rkblhwq:1,2015-04-07T22:45:00Z,26.0257,-81.7332,1.32,34.4,1111122 
NERRS,ioos:station:NOAA.NERRS:rkblhwq:1,2015-04-08T00:45:00Z,26.0257,-81.7332,1.05,34.4,1111122 
NERRS,ioos:station:NOAA.NERRS:rkblhwq:1,2015-04-08T01:45:00Z,26.0257,-81.7332,0.92,34.4,1111122 
NERRS,ioos:station:NOAA.NERRS:rkblhwq:1,2015-04-08T02:45:00Z,26.0257,-81.7332,0.82,34.5,1111122 
NERRS,ioos:station:NOAA.NERRS:rkblhwq:1,2015-04-08T03:45:00Z,26.0257,-81.7332,0.8,34.0,1111122 
NERRS,ioos:station:NOAA.NERRS:rkblhwq:1,2015-04-08T04:45:00Z,26.0257,-81.7332,0.89,34.0,1111122 
NERRS,ioos:station:NOAA.NERRS:rkblhwq:1,2015-04-08T06:45:00Z,26.0257,-81.7332,1.15,34.4,1111122 
NERRS,ioos:station:NOAA.NERRS:rkblhwq:1,2015-04-08T07:45:00Z,26.0257,-81.7332,1.28,34.3,1111122 
NERRS,ioos:station:NOAA.NERRS:rkblhwq:1,2015-04-08T08:45:00Z,26.0257,-81.7332,1.38,34.2,1111122 
NERRS,ioos:station:NOAA.NERRS:rkblhwq:1,2015-04-08T09:45:00Z,26.0257,-81.7332,1.39,34.3,1111122 
NERRS,ioos:station:NOAA.NERRS:rkblhwq:1,2015-04-08T10:45:00Z,26.0257,-81.7332,1.31,34.4,1111122 
NERRS,ioos:station:NOAA.NERRS:rkblhwq:1,2015-04-08T12:45:00Z,26.0257,-81.7332,1.13,34.3,1111122 
NERRS,ioos:station:NOAA.NERRS:rkblhwq:1,2015-04-08T13:45:00Z,26.0257,-81.7332,1.06,34.2,1111122 
NERRS,ioos:station:NOAA.NERRS:rkblhwq:1,2015-04-08T14:45:00Z,26.0257,-81.7332,1.06,34.1,1111122 
NERRS,ioos:station:NOAA.NERRS:rkblhwq:1,2015-04-08T15:45:00Z,26.0257,-81.7332,1.14,34.3,1111122 
NERRS,ioos:station:NOAA.NERRS:rkblhwq:1,2015-04-08T16:45:00Z,26.0257,-81.7332,1.24,34.3,1111122 
NERRS,ioos:station:NOAA.NERRS:rkblhwq:1,2015-04-08T17:45:00Z,26.0257,-81.7332,1.37,34.3,1111122 
NERRS,ioos:station:NOAA.NERRS:rkblhwq:1,2015-04-08T18:45:00Z,26.0257,-81.7332,1.5,34.3,1111122 
NERRS,ioos:station:NOAA.NERRS:rkblhwq:1,2015-04-08T20:45:00Z,26.0257,-81.7332,1.66,34.4,1111122 
NERRS,ioos:station:NOAA.NERRS:rkblhwq:1,2015-04-08T21:45:00Z,26.0257,-81.7332,1.58,34.4,1111122 
NERRS,ioos:station:NOAA.NERRS:rkblhwq:1,2015-04-08T23:45:00Z,26.0257,-81.7332,1.32,34.4,1111122 
NERRS,ioos:station:NOAA.NERRS:rkblhwq:1,2015-04-09T00:45:00Z,26.0257,-81.7332,1.18,34.3,1111122 
NERRS,ioos:station:NOAA.NERRS:rkblhwq:1,2015-04-09T01:45:00Z,26.0257,-81.7332,1.05,34.4,1111122 
NERRS,ioos:station:NOAA.NERRS:rkblhwq:1,2015-04-09T02:45:00Z,26.0257,-81.7332,0.92,34.4,1111122 
NERRS,ioos:station:NOAA.NERRS:rkblhwq:1,2015-04-09T03:45:00Z,26.0257,-81.7332,0.83,34.3,1111122 
NERRS,ioos:station:NOAA.NERRS:rkblhwq:1,2015-04-09T04:45:00Z,26.0257,-81.7332,0.85,34.1,1111122 
NERRS,ioos:station:NOAA.NERRS:rkblhwq:1,2015-04-09T06:45:00Z,26.0257,-81.7332,1.08,34.3,1111122 
NERRS,ioos:station:NOAA.NERRS:rkblhwq:1,2015-04-09T07:45:00Z,26.0257,-81.7332,1.21,34.4,1111122 
NERRS,ioos:station:NOAA.NERRS:rkblhwq:1,2015-04-09T08:45:00Z,26.0257,-81.7332,1.33,34.3,1111122 
NERRS,ioos:station:NOAA.NERRS:rkblhwq:1,2015-04-09T09:45:00Z,26.0257,-81.7332,1.42,34.3,1111122 
NERRS,ioos:station:NOAA.NERRS:rkblhwq:1,2015-04-09T10:45:00Z,26.0257,-81.7332,1.39,34.3,1111122 
NERRS,ioos:station:NOAA.NERRS:rkblhwq:1,2015-04-09T11:45:00Z,26.0257,-81.7332,1.31,34.4,1111122 
NERRS,ioos:station:NOAA.NERRS:rkblhwq:1,2015-04-09T13:45:00Z,26.0257,-81.7332,1.18,34.4,1111122 
NERRS,ioos:station:NOAA.NERRS:rkblhwq:1,2015-04-09T14:45:00Z,26.0257,-81.7332,1.15,34.4,1111122 
NERRS,ioos:station:NOAA.NERRS:rkblhwq:1,2015-04-09T15:45:00Z,26.0257,-81.7332,1.16,34.4,1111122 
NERRS,ioos:station:NOAA.NERRS:rkblhwq:1,2015-04-09T16:45:00Z,26.0257,-81.7332,1.22,34.4,1111122 
NERRS,ioos:station:NOAA.NERRS:rkblhwq:1,2015-04-09T17:45:00Z,26.0257,-81.7332,1.32,34.4,1111122 
NERRS,ioos:station:NOAA.NERRS:rkblhwq:1,2015-04-09T18:45:00Z,26.0257,-81.7332,1.43,34.4,1111122 
NERRS,ioos:station:NOAA.NERRS:rkblhwq:1,2015-04-09T20:45:00Z,26.0257,-81.7332,1.6,34.4,1111122 
NERRS,ioos:station:NOAA.NERRS:rkblhwq:1,2015-04-09T22:45:00Z,26.0257,-81.7332,1.54,34.5,1111122 
NERRS,ioos:station:NOAA.NERRS:rkblhwq:1,2015-04-10T00:45:00Z,26.0257,-81.7332,1.27,34.5,1111122 
NERRS,ioos:station:NOAA.NERRS:rkblhwq:1,2015-04-10T01:45:00Z,26.0257,-81.7332,1.13,34.5,1111122 
NERRS,ioos:station:NOAA.NERRS:rkblhwq:1,2015-04-10T02:45:00Z,26.0257,-81.7332,1.0,34.6,1111122 
NERRS,ioos:station:NOAA.NERRS:rkblhwq:1,2015-04-10T03:45:00Z,26.0257,-81.7332,0.89,34.6,1111122 
NERRS,ioos:station:NOAA.NERRS:rkblhwq:1,2015-04-10T04:45:00Z,26.0257,-81.7332,0.82,34.6,1111122 
NERRS,ioos:station:NOAA.NERRS:rkblhwq:1,2015-04-10T06:45:00Z,26.0257,-81.7332,0.94,34.3,1111122 
NERRS,ioos:station:NOAA.NERRS:rkblhwq:1,2015-04-10T08:45:00Z,26.0257,-81.7332,1.15,34.5,1111122 
NERRS,ioos:station:NOAA.NERRS:rkblhwq:1,2015-04-10T09:45:00Z,26.0257,-81.7332,1.27,34.5,1111122 
NERRS,ioos:station:NOAA.NERRS:rkblhwq:1,2015-04-10T10:45:00Z,26.0257,-81.7332,1.37,34.4,1111122 
NERRS,ioos:station:NOAA.NERRS:rkblhwq:1,2015-04-10T12:45:00Z,26.0257,-81.7332,1.33,34.5,1111122 
NERRS,ioos:station:NOAA.NERRS:rkblhwq:1,2015-04-10T13:45:00Z,26.0257,-81.7332,1.26,34.5,1111122 
NERRS,ioos:station:NOAA.NERRS:rkblhwq:1,2015-04-10T15:45:00Z,26.0257,-81.7332,1.21,34.4,1111122 
NERRS,ioos:station:NOAA.NERRS:rkblhwq:1,2015-04-10T16:45:00Z,26.0257,-81.7332,1.24,34.5,1111122 
NERRS,ioos:station:NOAA.NERRS:rkblhwq:1,2015-04-10T17:45:00Z,26.0257,-81.7332,1.29,34.5,1111122 
NERRS,ioos:station:NOAA.NERRS:rkblhwq:1,2015-04-10T19:45:00Z,26.0257,-81.7332,1.47,34.5,1111122 
NERRS,ioos:station:NOAA.NERRS:rkblhwq:1,2015-04-10T21:45:00Z,26.0257,-81.7332,1.61,34.4,1111122 
NERRS,ioos:station:NOAA.NERRS:rkblhwq:1,2015-04-10T22:45:00Z,26.0257,-81.7332,1.57,34.5,1111122 
NERRS,ioos:station:NOAA.NERRS:rkblhwq:1,2015-04-10T23:45:00Z,26.0257,-81.7332,1.46,34.5,1111122 
NERRS,ioos:station:NOAA.NERRS:rkblhwq:1,2015-04-11T01:45:00Z,26.0257,-81.7332,1.23,34.5,1111122 
NERRS,ioos:station:NOAA.NERRS:rkblhwq:1,2015-04-11T02:45:00Z,26.0257,-81.7332,1.1,34.5,1111122 
NERRS,ioos:station:NOAA.NERRS:rkblhwq:1,2015-04-11T03:45:00Z,26.0257,-81.7332,0.98,34.5,1111122 
NERRS,ioos:station:NOAA.NERRS:rkblhwq:1,2015-04-11T04:45:00Z,26.0257,-81.7332,0.89,34.5,1111122 
NERRS,ioos:station:NOAA.NERRS:rkblhwq:1,2015-04-11T06:45:00Z,26.0257,-81.7332,0.85,34.2,1111122 
NERRS,ioos:station:NOAA.NERRS:rkblhwq:1,2015-04-11T08:45:00Z,26.0257,-81.7332,1.04,34.4,1111122 
NERRS,ioos:station:NOAA.NERRS:rkblhwq:1,2015-04-11T09:45:00Z,26.0257,-81.7332,1.17,34.5,1111122 
NERRS,ioos:station:NOAA.NERRS:rkblhwq:1,2015-04-11T10:45:00Z,26.0257,-81.7332,1.29,34.5,1111122 
NERRS,ioos:station:NOAA.NERRS:rkblhwq:1,2015-04-11T11:45:00Z,26.0257,-81.7332,1.37,34.4,1111122 
NERRS,ioos:station:NOAA.NERRS:rkblhwq:1,2015-04-11T12:45:00Z,26.0257,-81.7332,1.39,34.4,1111122 
NERRS,ioos:station:NOAA.NERRS:rkblhwq:1,2015-04-11T13:45:00Z,26.0257,-81.7332,1.36,34.5,1111122 
NERRS,ioos:station:NOAA.NERRS:rkblhwq:1,2015-04-11T14:45:00Z,26.0257,-81.7332,1.3,34.5,1111122 
NERRS,ioos:station:NOAA.NERRS:rkblhwq:1,2015-04-11T16:45:00Z,26.0257,-81.7332,1.17,34.5,1111122 
NERRS,ioos:station:NOAA.NERRS:rkblhwq:1,2015-04-11T17:45:00Z,26.0257,-81.7332,1.18,34.4,1111122 
NERRS,ioos:station:NOAA.NERRS:rkblhwq:1,2015-04-11T18:45:00Z,26.0257,-81.7332,1.23,34.5,1111122 
NERRS,ioos:station:NOAA.NERRS:rkblhwq:1,2015-04-11T19:45:00Z,26.0257,-81.7332,1.3,34.5,1111122 
NERRS,ioos:station:NOAA.NERRS:rkblhwq:1,2015-04-11T20:45:00Z,26.0257,-81.7332,1.39,34.5,1111122 
NERRS,ioos:station:NOAA.NERRS:rkblhwq:1,2015-04-11T23:45:00Z,26.0257,-81.7332,1.49,34.4,1111122 
NERRS,ioos:station:NOAA.NERRS:rkblhwq:1,2015-04-12T00:45:00Z,26.0257,-81.7332,1.42,34.5,1111122 
NERRS,ioos:station:NOAA.NERRS:rkblhwq:1,2015-04-12T01:45:00Z,26.0257,-81.7332,1.32,34.5,1111122 
NERRS,ioos:station:NOAA.NERRS:rkblhwq:1,2015-04-12T02:45:00Z,26.0257,-81.7332,1.2,34.5,1111122 
NERRS,ioos:station:NOAA.NERRS:rkblhwq:1,2015-04-12T03:45:00Z,26.0257,-81.7332,1.09,34.4,1111122 
NERRS,ioos:station:NOAA.NERRS:rkblhwq:1,2015-04-12T04:45:00Z,26.0257,-81.7332,0.98,34.3,1111122 
NERRS,ioos:station:NOAA.NERRS:rkblhwq:1,2015-04-12T06:45:00Z,26.0257,-81.7332,0.8,34.5,1111122 
NERRS,ioos:station:NOAA.NERRS:rkblhwq:1,2015-04-12T07:45:00Z,26.0257,-81.7332,0.8,34.0,1111122 
NERRS,ioos:station:NOAA.NERRS:rkblhwq:1,2015-04-12T08:45:00Z,26.0257,-81.7332,0.89,34.1,1111122 
NERRS,ioos:station:NOAA.NERRS:rkblhwq:1,2015-04-12T09:45:00Z,26.0257,-81.7332,1.01,34.2,1111122 
NERRS,ioos:station:NOAA.NERRS:rkblhwq:1,2015-04-12T10:45:00Z,26.0257,-81.7332,1.14,34.4,1111122 
NERRS,ioos:station:NOAA.NERRS:rkblhwq:1,2015-04-12T11:45:00Z,26.0257,-81.7332,1.28,34.3,1111122 
NERRS,ioos:station:NOAA.NERRS:rkblhwq:1,2015-04-12T12:45:00Z,26.0257,-81.7332,1.38,34.3,1111122 
NERRS,ioos:station:NOAA.NERRS:rkblhwq:1,2015-04-12T13:45:00Z,26.0257,-81.7332,1.43,34.3,1111122 
NERRS,ioos:station:NOAA.NERRS:rkblhwq:1,2015-04-12T16:45:00Z,26.0257,-81.7332,1.24,34.4,1111122 
NERRS,ioos:station:NOAA.NERRS:rkblhwq:1,2015-04-12T18:45:00Z,26.0257,-81.7332,1.15,34.3,1111122 
NERRS,ioos:station:NOAA.NERRS:rkblhwq:1,2015-04-12T19:45:00Z,26.0257,-81.7332,1.17,34.3,1111122 
NERRS,ioos:station:NOAA.NERRS:rkblhwq:1,2015-04-12T21:45:00Z,26.0257,-81.7332,1.34,34.4,1111122 
NERRS,ioos:station:NOAA.NERRS:rkblhwq:1,2015-04-12T22:45:00Z,26.0257,-81.7332,1.42,34.4,1111122 
NERRS,ioos:station:NOAA.NERRS:rkblhwq:1,2015-04-13T00:45:00Z,26.0257,-81.7332,1.53,34.4,1111122 
NERRS,ioos:station:NOAA.NERRS:rkblhwq:1,2015-04-13T01:45:00Z,26.0257,-81.7332,1.47,34.4,1111122 
NERRS,ioos:station:NOAA.NERRS:rkblhwq:1,2015-04-13T02:45:00Z,26.0257,-81.7332,1.38,34.4,1111122 
NERRS,ioos:station:NOAA.NERRS:rkblhwq:1,2015-04-13T03:45:00Z,26.0257,-81.7332,1.28,34.4,1111122 
NERRS,ioos:station:NOAA.NERRS:rkblhwq:1,2015-04-13T04:45:00Z,26.0257,-81.7332,1.17,34.4,1111122 
NERRS,ioos:station:NOAA.NERRS:rkblhwq:1,2015-04-13T06:45:00Z,26.0257,-81.7332,0.95,34.4,1111122 
NERRS,ioos:station:NOAA.NERRS:rkblhwq:1,2015-04-13T07:45:00Z,26.0257,-81.7332,0.86,34.4,1111122 
NERRS,ioos:station:NOAA.NERRS:rkblhwq:1,2015-04-13T08:45:00Z,26.0257,-81.7332,0.87,34.2,1111122 
NERRS,ioos:station:NOAA.NERRS:rkblhwq:1,2015-04-13T09:45:00Z,26.0257,-81.7332,0.97,34.2,1111122 
NERRS,ioos:station:NOAA.NERRS:rkblhwq:1,2015-04-13T10:45:00Z,26.0257,-81.7332,1.09,34.2,1111122 
NERRS,ioos:station:NOAA.NERRS:rkblhwq:1,2015-04-13T11:45:00Z,26.0257,-81.7332,1.24,34.3,1111122 
NERRS,ioos:station:NOAA.NERRS:rkblhwq:1,2015-04-13T12:45:00Z,26.0257,-81.7332,1.39,34.4,1111122 
NERRS,ioos:station:NOAA.NERRS:rkblhwq:1,2015-04-13T13:45:00Z,26.0257,-81.7332,1.51,34.3,1111122 
NERRS,ioos:station:NOAA.NERRS:rkblhwq:1,2015-04-13T14:45:00Z,26.0257,-81.7332,1.6,34.3,1111122 
NERRS,ioos:station:NOAA.NERRS:rkblhwq:1,2015-04-13T15:45:00Z,26.0257,-81.7332,1.57,34.4,1111122 
NERRS,ioos:station:NOAA.NERRS:rkblhwq:1,2015-04-13T16:45:00Z,26.0257,-81.7332,1.46,34.4,1111122 
NERRS,ioos:station:NOAA.NERRS:rkblhwq:1,2015-04-13T18:45:00Z,26.0257,-81.7332,1.25,34.4,1111122 
NERRS,ioos:station:NOAA.NERRS:rkblhwq:1,2015-04-13T20:45:00Z,26.0257,-81.7332,1.18,34.4,1111122 
NERRS,ioos:station:NOAA.NERRS:rkblhwq:1,2015-04-13T21:45:00Z,26.0257,-81.7332,1.24,34.4,1111122 
NERRS,ioos:station:NOAA.NERRS:rkblhwq:1,2015-04-13T22:45:00Z,26.0257,-81.7332,1.34,34.5,1111122 
NERRS,ioos:station:NOAA.NERRS:rkblhwq:1,2015-04-13T23:45:00Z,26.0257,-81.7332,1.45,34.5,1111122 
NERRS,ioos:station:NOAA.NERRS:rkblhwq:1,2015-04-14T01:45:00Z,26.0257,-81.7332,1.59,34.4,1111122 
NERRS,ioos:station:NOAA.NERRS:rkblhwq:1,2015-04-14T02:45:00Z,26.0257,-81.7332,1.57,34.4,1111122 
NERRS,ioos:station:NOAA.NERRS:rkblhwq:1,2015-04-14T03:45:00Z,26.0257,-81.7332,1.46,34.4,1111122 
NERRS,ioos:station:NOAA.NERRS:rkblhwq:1,2015-04-14T04:45:00Z,26.0257,-81.7332,1.34,34.5,1111122 
NERRS,ioos:station:NOAA.NERRS:rkblhwq:1,2015-04-14T06:45:00Z,26.0257,-81.7332,1.06,34.4,1111122 
NERRS,ioos:station:NOAA.NERRS:rkblhwq:1,2015-04-14T07:45:00Z,26.0257,-81.7332,0.93,34.5,1111122 
NERRS,ioos:station:NOAA.NERRS:rkblhwq:1,2015-04-14T09:45:00Z,26.0257,-81.7332,0.82,34.4,1111122 
NERRS,ioos:station:NOAA.NERRS:rkblhwq:1,2015-04-14T10:45:00Z,26.0257,-81.7332,0.91,34.1,1111122 
NERRS,ioos:station:NOAA.NERRS:rkblhwq:1,2015-04-14T12:45:00Z,26.0257,-81.7332,1.16,34.4,1111122 
NERRS,ioos:station:NOAA.NERRS:rkblhwq:1,2015-04-14T13:45:00Z,26.0257,-81.7332,1.3,34.4,1111122 
NERRS,ioos:station:NOAA.NERRS:rkblhwq:1,2015-04-14T14:45:00Z,26.0257,-81.7332,1.43,34.3,1111122 
NERRS,ioos:station:NOAA.NERRS:rkblhwq:1,2015-04-14T15:45:00Z,26.0257,-81.7332,1.52,34.3,1111122 
NERRS,ioos:station:NOAA.NERRS:rkblhwq:1,2015-04-14T17:45:00Z,26.0257,-81.7332,1.36,34.4,1111122 
NERRS,ioos:station:NOAA.NERRS:rkblhwq:1,2015-04-14T18:45:00Z,26.0257,-81.7332,1.24,34.4,1111122 
NERRS,ioos:station:NOAA.NERRS:rkblhwq:1,2015-04-14T20:45:00Z,26.0257,-81.7332,1.06,34.4,1111122 
NERRS,ioos:station:NOAA.NERRS:rkblhwq:1,2015-04-15T02:45:00Z,26.0257,-81.7332,1.63,34.3,1111122 
NERRS,ioos:station:NOAA.NERRS:rkblhwq:1,2015-04-15T13:45:00Z,26.0257,-81.7332,1.29,34.3,1111122 
NERRS,ioos:station:NOAA.NERRS:rkblhwq:1,2015-04-15T14:45:00Z,26.0257,-81.7332,1.46,34.3,1111122 
NERRS,ioos:station:NOAA.NERRS:rkblhwq:1,2015-04-15T15:45:00Z,26.0257,-81.7332,1.58,34.3,1111122 
NERRS,ioos:station:NOAA.NERRS:rkblhwq:1,2015-04-15T16:45:00Z,26.0257,-81.7332,1.61,34.3,1111122 
NERRS,ioos:station:NOAA.NERRS:rkblhwq:1,2015-04-15T17:45:00Z,26.0257,-81.7332,1.52,34.3,1111122 
NERRS,ioos:station:NOAA.NERRS:rkblhwq:1,2015-04-16T13:45:00Z,26.0257,-81.7332,1.19,34.3,1111122 
NERRS,ioos:station:NOAA.NERRS:rkblhwq:1,2015-04-16T14:45:00Z,26.0257,-81.7332,1.35,34.4,1111122 
NERRS,ioos:station:NOAA.NERRS:rkblhwq:1,2015-04-16T16:45:00Z,26.0257,-81.7332,1.62,34.3,1111122 
NERRS,ioos:station:NOAA.NERRS:rkblhwq:1,2015-04-16T18:45:00Z,26.0257,-81.7332,1.45,34.4,1111122 
NERRS,ioos:station:NOAA.NERRS:rkblhwq:1,2015-04-16T19:45:00Z,26.0257,-81.7332,1.3,34.4,1111122 
NERRS,ioos:station:NOAA.NERRS:rkblhwq:1,2015-04-16T20:45:00Z,26.0257,-81.7332,1.16,34.4,1111122 
NERRS,ioos:station:NOAA.NERRS:rkblhwq:1,2015-04-16T22:45:00Z,26.0257,-81.7332,0.9,34.5,1111122 
NERRS,ioos:station:NOAA.NERRS:rkblhwq:1,2015-04-17T00:45:00Z,26.0257,-81.7332,0.95,34.3,1111122 
NERRS,ioos:station:NOAA.NERRS:rkblhwq:1,2015-04-17T01:45:00Z,26.0257,-81.7332,1.1,34.4,1111122 
NERRS,ioos:station:NOAA.NERRS:rkblhwq:1,2015-04-17T02:45:00Z,26.0257,-81.7332,1.29,34.4,1111122 
NERRS,ioos:station:NOAA.NERRS:rkblhwq:1,2015-04-17T03:45:00Z,26.0257,-81.7332,1.46,34.4,1111122 
NERRS,ioos:station:NOAA.NERRS:rkblhwq:1,2015-04-17T04:45:00Z,26.0257,-81.7332,1.61,34.4,1111122 
NERRS,ioos:station:NOAA.NERRS:rkblhwq:1,2015-04-17T06:45:00Z,26.0257,-81.7332,1.6,34.5,1111122 
NERRS,ioos:station:NOAA.NERRS:rkblhwq:1,2015-04-17T07:45:00Z,26.0257,-81.7332,1.47,34.4,1111122 
NERRS,ioos:station:NOAA.NERRS:rkblhwq:1,2015-04-17T08:45:00Z,26.0257,-81.7332,1.32,34.5,1111122 
NERRS,ioos:station:NOAA.NERRS:rkblhwq:1,2015-04-17T10:45:00Z,26.0257,-81.7332,1.04,34.5,1111122 
NERRS,ioos:station:NOAA.NERRS:rkblhwq:1,2015-04-17T11:45:00Z,26.0257,-81.7332,0.98,34.6,1111122 
NERRS,ioos:station:NOAA.NERRS:rkblhwq:1,2015-04-17T12:45:00Z,26.0257,-81.7332,1.08,34.4,1111122 
NERRS,ioos:station:NOAA.NERRS:rkblhwq:1,2015-04-17T13:45:00Z,26.0257,-81.7332,1.22,34.5,1111122 
NERRS,ioos:station:NOAA.NERRS:rkblhwq:1,2015-04-17T14:45:00Z,26.0257,-81.7332,1.39,34.4,1111122 
NERRS,ioos:station:NOAA.NERRS:rkblhwq:1,2015-04-17T15:45:00Z,26.0257,-81.7332,1.56,34.4,1111122 
NERRS,ioos:station:NOAA.NERRS:rkblhwq:1,2015-04-17T16:45:00Z,26.0257,-81.7332,1.69,34.4,1111122 
NERRS,ioos:station:NOAA.NERRS:rkblhwq:1,2015-04-17T18:45:00Z,26.0257,-81.7332,1.67,34.5,1111122 
NERRS,ioos:station:NOAA.NERRS:rkblhwq:1,2015-04-17T19:45:00Z,26.0257,-81.7332,1.52,34.5,1111122 
NERRS,ioos:station:NOAA.NERRS:rkblhwq:1,2015-04-17T20:45:00Z,26.0257,-81.7332,1.35,34.5,1111122 
NERRS,ioos:station:NOAA.NERRS:rkblhwq:1,2015-04-17T21:45:00Z,26.0257,-81.7332,1.17,34.5,1111122 
NERRS,ioos:station:NOAA.NERRS:rkblhwq:1,2015-04-17T23:45:00Z,26.0257,-81.7332,0.89,34.6,1111122 
NERRS,ioos:station:NOAA.NERRS:rkblhwq:1,2015-04-18T00:45:00Z,26.0257,-81.7332,0.85,34.7,1111122 
NERRS,ioos:station:NOAA.NERRS:rkblhwq:1,2015-04-18T01:45:00Z,26.0257,-81.7332,0.97,34.5,1111122 
NERRS,ioos:station:NOAA.NERRS:rkblhwq:1,2015-04-18T02:45:00Z,26.0257,-81.7332,1.13,34.6,1111122 
NERRS,ioos:station:NOAA.NERRS:rkblhwq:1,2015-04-18T03:45:00Z,26.0257,-81.7332,1.33,34.6,1111122 
NERRS,ioos:station:NOAA.NERRS:rkblhwq:1,2015-04-18T04:45:00Z,26.0257,-81.7332,1.51,34.5,1111122 
NERRS,ioos:station:NOAA.NERRS:rkblhwq:1,2015-04-18T05:45:00Z,26.0257,-81.7332,1.65,34.5,1111122 
NERRS,ioos:station:NOAA.NERRS:rkblhwq:1,2015-04-18T06:45:00Z,26.0257,-81.7332,1.69,34.6,1111122 
NERRS,ioos:station:NOAA.NERRS:rkblhwq:1,2015-04-18T07:45:00Z,26.0257,-81.7332,1.59,34.6,1111122 
NERRS,ioos:station:NOAA.NERRS:rkblhwq:1,2015-04-18T08:45:00Z,26.0257,-81.7332,1.45,34.6,1111122 
NERRS,ioos:station:NOAA.NERRS:rkblhwq:1,2015-04-18T10:45:00Z,26.0257,-81.7332,1.17,34.7,1111122 
NERRS,ioos:station:NOAA.NERRS:rkblhwq:1,2015-04-18T11:45:00Z,26.0257,-81.7332,1.05,34.7,1111122 
NERRS,ioos:station:NOAA.NERRS:rkblhwq:1,2015-04-18T12:45:00Z,26.0257,-81.7332,1.04,34.6,1111122 
NERRS,ioos:station:NOAA.NERRS:rkblhwq:1,2015-04-18T13:45:00Z,26.0257,-81.7332,1.15,34.6,1111122 
NERRS,ioos:station:NOAA.NERRS:rkblhwq:1,2015-04-18T14:45:00Z,26.0257,-81.7332,1.31,34.6,1111122 
NERRS,ioos:station:NOAA.NERRS:rkblhwq:1,2015-04-18T16:45:00Z,26.0257,-81.7332,1.65,34.6,1111122 
NERRS,ioos:station:NOAA.NERRS:rkblhwq:1,2015-04-18T17:45:00Z,26.0257,-81.7332,1.75,34.6,1111122 
NERRS,ioos:station:NOAA.NERRS:rkblhwq:1,2015-04-18T19:45:00Z,26.0257,-81.7332,1.61,34.6,1111122 
NERRS,ioos:station:NOAA.NERRS:rkblhwq:1,2015-04-18T20:45:00Z,26.0257,-81.7332,1.46,34.6,1111122 
NERRS,ioos:station:NOAA.NERRS:rkblhwq:1,2015-04-18T22:45:00Z,26.0257,-81.7332,1.1,34.7,1111122 
NERRS,ioos:station:NOAA.NERRS:rkblhwq:1,2015-04-18T23:45:00Z,26.0257,-81.7332,0.95,34.7,1111122 
NERRS,ioos:station:NOAA.NERRS:rkblhwq:1,2015-04-19T00:45:00Z,26.0257,-81.7332,0.82,34.8,1111122 
NERRS,ioos:station:NOAA.NERRS:rkblhwq:1,2015-04-19T01:45:00Z,26.0257,-81.7332,0.79,34.9,1111122 
NERRS,ioos:station:NOAA.NERRS:rkblhwq:1,2015-04-19T02:45:00Z,26.0257,-81.7332,0.92,34.6,1111122 
NERRS,ioos:station:NOAA.NERRS:rkblhwq:1,2015-04-19T03:45:00Z,26.0257,-81.7332,1.07,34.8,1111122 
NERRS,ioos:station:NOAA.NERRS:rkblhwq:1,2015-04-19T04:45:00Z,26.0257,-81.7332,1.26,34.7,1111122 
NERRS,ioos:station:NOAA.NERRS:rkblhwq:1,2015-04-19T05:45:00Z,26.0257,-81.7332,1.43,34.7,1111122 
NERRS,ioos:station:NOAA.NERRS:rkblhwq:1,2015-04-19T06:45:00Z,26.0257,-81.7332,1.57,34.7,1111122 
NERRS,ioos:station:NOAA.NERRS:rkblhwq:1,2015-04-19T07:45:00Z,26.0257,-81.7332,1.6,34.7,1111122 
NERRS,ioos:station:NOAA.NERRS:rkblhwq:1,2015-04-19T08:45:00Z,26.0257,-81.7332,1.48,34.7,1111122 
NERRS,ioos:station:NOAA.NERRS:rkblhwq:1,2015-04-19T10:45:00Z,26.0257,-81.7332,1.22,34.8,1111122 
NERRS,ioos:station:NOAA.NERRS:rkblhwq:1,2015-04-19T12:45:00Z,26.0257,-81.7332,1.01,34.8,1111122 
NERRS,ioos:station:NOAA.NERRS:rkblhwq:1,2015-04-19T13:45:00Z,26.0257,-81.7332,1.05,34.7,1111122 
NERRS,ioos:station:NOAA.NERRS:rkblhwq:1,2015-04-19T14:45:00Z,26.0257,-81.7332,1.19,34.8,1111122 
NERRS,ioos:station:NOAA.NERRS:rkblhwq:1,2015-04-19T16:45:00Z,26.0257,-81.7332,1.55,34.8,1111122 
NERRS,ioos:station:NOAA.NERRS:rkblhwq:1,2015-04-19T18:45:00Z,26.0257,-81.7332,1.76,34.7,1111122 
NERRS,ioos:station:NOAA.NERRS:rkblhwq:1,2015-04-19T19:45:00Z,26.0257,-81.7332,1.71,34.8,1111122 
NERRS,ioos:station:NOAA.NERRS:rkblhwq:1,2015-04-19T20:45:00Z,26.0257,-81.7332,1.59,34.8,1111122 
NERRS,ioos:station:NOAA.NERRS:rkblhwq:1,2015-04-19T21:45:00Z,26.0257,-81.7332,1.43,34.8,1111122 
NERRS,ioos:station:NOAA.NERRS:rkblhwq:1,2015-04-19T22:45:00Z,26.0257,-81.7332,1.25,34.8,1111122 
NERRS,ioos:station:NOAA.NERRS:rkblhwq:1,2015-04-20T00:45:00Z,26.0257,-81.7332,0.93,35.0,1111122 
NERRS,ioos:station:NOAA.NERRS:rkblhwq:1,2015-04-20T01:45:00Z,26.0257,-81.7332,0.81,35.0,1111122 
NERRS,ioos:station:NOAA.NERRS:rkblhwq:1,2015-04-20T02:45:00Z,26.0257,-81.7332,0.82,34.8,1111122 
NERRS,ioos:station:NOAA.NERRS:rkblhwq:1,2015-04-20T03:45:00Z,26.0257,-81.7332,0.95,34.8,1111122 
NERRS,ioos:station:NOAA.NERRS:rkblhwq:1,2015-04-20T04:45:00Z,26.0257,-81.7332,1.11,34.9,1111122 
NERRS,ioos:station:NOAA.NERRS:rkblhwq:1,2015-04-20T06:45:00Z,26.0257,-81.7332,1.47,34.8,1111122 
NERRS,ioos:station:NOAA.NERRS:rkblhwq:1,2015-04-20T09:45:00Z,26.0257,-81.7332,1.49,34.9,1111122 
NERRS,ioos:station:NOAA.NERRS:rkblhwq:1,2015-04-20T10:45:00Z,26.0257,-81.7332,1.35,34.9,1111122 
NERRS,ioos:station:NOAA.NERRS:rkblhwq:1,2015-04-20T11:45:00Z,26.0257,-81.7332,1.22,35.0,1111122 
NERRS,ioos:station:NOAA.NERRS:rkblhwq:1,2015-04-20T13:45:00Z,26.0257,-81.7332,1.08,35.0,1111122 
NERRS,ioos:station:NOAA.NERRS:rkblhwq:1,2015-04-20T14:45:00Z,26.0257,-81.7332,1.18,34.9,1111122 
NERRS,ioos:station:NOAA.NERRS:rkblhwq:1,2015-04-20T16:45:00Z,26.0257,-81.7332,1.49,34.9,1111122 
NERRS,ioos:station:NOAA.NERRS:rkblhwq:1,2015-04-20T17:45:00Z,26.0257,-81.7332,1.64,34.9,1111122 
NERRS,ioos:station:NOAA.NERRS:rkblhwq:1,2015-04-20T18:45:00Z,26.0257,-81.7332,1.73,34.8,1111122 
NERRS,ioos:station:NOAA.NERRS:rkblhwq:1,2015-04-20T20:45:00Z,26.0257,-81.7332,1.69,35.0,1111122 
NERRS,ioos:station:NOAA.NERRS:rkblhwq:1,2015-04-20T21:45:00Z,26.0257,-81.7332,1.57,34.9,1111122 
NERRS,ioos:station:NOAA.NERRS:rkblhwq:1,2015-04-20T22:45:00Z,26.0257,-81.7332,1.42,34.9,1111122 
NERRS,ioos:station:NOAA.NERRS:rkblhwq:1,2015-04-21T00:45:00Z,26.0257,-81.7332,1.07,35.1,1111122 
NERRS,ioos:station:NOAA.NERRS:rkblhwq:1,2015-04-21T01:45:00Z,26.0257,-81.7332,0.93,35.2,1111122 
NERRS,ioos:station:NOAA.NERRS:rkblhwq:1,2015-04-21T02:45:00Z,26.0257,-81.7332,0.82,35.2,1111122 
NERRS,ioos:station:NOAA.NERRS:rkblhwq:1,2015-04-21T03:45:00Z,26.0257,-81.7332,0.79,35.2,1111122 
NERRS,ioos:station:NOAA.NERRS:rkblhwq:1,2015-04-21T04:45:00Z,26.0257,-81.7332,0.92,35.0,1111122 
NERRS,ioos:station:NOAA.NERRS:rkblhwq:1,2015-04-21T05:45:00Z,26.0257,-81.7332,1.12,35.1,1111122 
NERRS,ioos:station:NOAA.NERRS:rkblhwq:1,2015-04-21T06:45:00Z,26.0257,-81.7332,1.33,35.0,1111122 
NERRS,ioos:station:NOAA.NERRS:rkblhwq:1,2015-04-21T07:45:00Z,26.0257,-81.7332,1.47,35.0,1111122 
NERRS,ioos:station:NOAA.NERRS:rkblhwq:1,2015-04-21T08:45:00Z,26.0257,-81.7332,1.53,35.0,1111122 
NERRS,ioos:station:NOAA.NERRS:rkblhwq:1,2015-04-21T09:45:00Z,26.0257,-81.7332,1.47,35.1,1111122 
NERRS,ioos:station:NOAA.NERRS:rkblhwq:1,2015-04-21T11:45:00Z,26.0257,-81.7332,1.28,35.1,1111122 
NERRS,ioos:station:NOAA.NERRS:rkblhwq:1,2015-04-21T12:45:00Z,26.0257,-81.7332,1.17,35.1,1111122 
NERRS,ioos:station:NOAA.NERRS:rkblhwq:1,2015-04-21T13:45:00Z,26.0257,-81.7332,1.08,35.2,1111122 
NERRS,ioos:station:NOAA.NERRS:rkblhwq:1,2015-04-21T15:45:00Z,26.0257,-81.7332,1.16,35.1,1111122 
NERRS,ioos:station:NOAA.NERRS:rkblhwq:1,2015-04-21T17:45:00Z,26.0257,-81.7332,1.45,35.1,1111122 
NERRS,ioos:station:NOAA.NERRS:rkblhwq:1,2015-04-21T18:45:00Z,26.0257,-81.7332,1.57,35.2,1111122 
NERRS,ioos:station:NOAA.NERRS:rkblhwq:1,2015-04-21T20:45:00Z,26.0257,-81.7332,1.63,35.2,1111122 
NERRS,ioos:station:NOAA.NERRS:rkblhwq:1,2015-04-21T22:45:00Z,26.0257,-81.7332,1.37,35.2,1111122 
NERRS,ioos:station:NOAA.NERRS:rkblhwq:1,2015-04-21T23:45:00Z,26.0257,-81.7332,1.21,35.2,1111122 
NERRS,ioos:station:NOAA.NERRS:rkblhwq:1,2015-04-22T00:45:00Z,26.0257,-81.7332,1.05,35.2,1111122 